Location: Góry Miechowskie
(50.3599°N, 20.1803°E)
Time: 07:05:10
(UTC+00:00)

A-11 Canister half - Pass Details

Date: 14 September 2024
Orbit: 1515 x 1684 km, 47.2° (Epoch: 05 October)

Event Time Altitude Azimuth Distance (km) Brightness Sun altitude
Rises 20:54:53 0° 271° (W) 4,681 11.9 -32.5°
Reaches altitude 10° 20:57:56 10° 270° (W) 3,688 11.3 -32.8°
Enters shadow 21:06:55 72° 199° (SSW) 1,582 8.8 -33.5°
Maximum altitude 21:07:08 72° 188° (S) 1,580 - -33.5°
Drops below altitude 10° 21:16:22 10° 107° (ESE) 3,696 - -34.1°
Sets 21:19:25 0° 105° (ESE) 4,692 - -34.3°
